Year,Month,Day,Hour,Minute,Value (Times are PST for temperature in C)
2019,04,02,00,00,7.70
2019,04,02,00,01,7.70
2019,04,02,00,02,7.70
2019,04,02,00,03,7.70
2019,04,02,00,04,7.60
2019,04,02,00,05,7.60
2019,04,02,00,06,7.60
2019,04,02,00,07,7.60
2019,04,02,00,08,7.60
2019,04,02,00,09,7.50
2019,04,02,00,10,7.50
2019,04,02,00,11,7.50
2019,04,02,00,12,7.40
2019,04,02,00,13,7.40
2019,04,02,00,14,7.40
2019,04,02,00,15,7.40
2019,04,02,00,16,7.40
2019,04,02,00,17,7.40
2019,04,02,00,18,7.40
2019,04,02,00,19,7.50
2019,04,02,00,20,7.60
2019,04,02,00,21,7.60
2019,04,02,00,22,7.70
2019,04,02,00,23,7.80
2019,04,02,00,24,7.80
2019,04,02,00,25,7.80
2019,04,02,00,26,7.80
2019,04,02,00,27,7.80
2019,04,02,00,28,7.80
2019,04,02,00,29,7.80
2019,04,02,00,30,7.80
2019,04,02,00,31,7.70
2019,04,02,00,32,7.70
2019,04,02,00,33,7.70
2019,04,02,00,34,7.60
2019,04,02,00,35,7.60
2019,04,02,00,36,7.50
2019,04,02,00,37,7.50
2019,04,02,00,38,7.40
2019,04,02,00,39,7.40
2019,04,02,00,40,7.40
2019,04,02,00,41,7.40
2019,04,02,00,42,7.40
2019,04,02,00,43,7.40
2019,04,02,00,44,7.50
2019,04,02,00,45,7.60
2019,04,02,00,46,7.60
2019,04,02,00,47,7.60
2019,04,02,00,48,7.60
2019,04,02,00,49,7.50
2019,04,02,00,50,7.50
2019,04,02,00,51,7.60
2019,04,02,00,52,7.60
2019,04,02,00,53,7.50
2019,04,02,00,54,7.50
2019,04,02,00,55,7.50
2019,04,02,00,56,7.50
2019,04,02,00,57,7.40
2019,04,02,00,58,7.40
2019,04,02,00,59,7.30
2019,04,02,01,00,7.30
2019,04,02,01,01,7.20
2019,04,02,01,02,7.20
2019,04,02,01,03,7.20
2019,04,02,01,04,7.10
2019,04,02,01,05,7.10
2019,04,02,01,06,7.10
2019,04,02,01,07,7.00
2019,04,02,01,08,7.00
2019,04,02,01,09,7.00
2019,04,02,01,10,6.90
2019,04,02,01,11,6.80
2019,04,02,01,12,6.80
2019,04,02,01,13,6.90
2019,04,02,01,14,6.90
2019,04,02,01,15,7.00
2019,04,02,01,16,7.00
2019,04,02,01,17,6.90
2019,04,02,01,18,6.90
2019,04,02,01,19,6.90
2019,04,02,01,20,6.80
2019,04,02,01,21,6.80
2019,04,02,01,22,6.80
2019,04,02,01,23,6.70
2019,04,02,01,24,6.70
2019,04,02,01,25,6.70
2019,04,02,01,26,6.60
2019,04,02,01,27,6.60
2019,04,02,01,28,6.60
2019,04,02,01,29,6.60
2019,04,02,01,30,6.50
2019,04,02,01,31,6.50
2019,04,02,01,32,6.50
2019,04,02,01,33,6.50
2019,04,02,01,34,6.50
2019,04,02,01,35,6.40
2019,04,02,01,36,6.40
2019,04,02,01,37,6.40
2019,04,02,01,38,6.30
2019,04,02,01,39,6.30
2019,04,02,01,40,6.30
2019,04,02,01,41,6.20
2019,04,02,01,42,6.20
2019,04,02,01,43,6.20
2019,04,02,01,44,6.20
2019,04,02,01,45,6.20
2019,04,02,01,46,6.10
2019,04,02,01,47,6.10
2019,04,02,01,48,6.10
2019,04,02,01,49,6.10
2019,04,02,01,50,6.10
2019,04,02,01,51,6.20
2019,04,02,01,52,6.20
2019,04,02,01,53,6.30
2019,04,02,01,54,6.30
2019,04,02,01,55,6.30
2019,04,02,01,56,6.30
2019,04,02,01,57,6.30
2019,04,02,01,58,6.30
2019,04,02,01,59,6.30
2019,04,02,02,00,6.30
2019,04,02,02,01,6.20
2019,04,02,02,02,6.20
2019,04,02,02,03,6.20
2019,04,02,02,04,6.20
2019,04,02,02,05,6.10
2019,04,02,02,06,6.10
2019,04,02,02,07,6.10
2019,04,02,02,08,6.10
2019,04,02,02,09,6.10
2019,04,02,02,10,6.00
2019,04,02,02,11,6.10
2019,04,02,02,12,6.10
2019,04,02,02,13,6.00
2019,04,02,02,14,6.00
2019,04,02,02,15,6.00
2019,04,02,02,16,6.00
2019,04,02,02,17,6.00
2019,04,02,02,18,6.00
2019,04,02,02,19,6.00
2019,04,02,02,20,5.90
2019,04,02,02,21,5.90
2019,04,02,02,22,6.00
2019,04,02,02,23,6.10
2019,04,02,02,24,6.10
2019,04,02,02,25,6.20
2019,04,02,02,26,6.40
2019,04,02,02,27,6.50
2019,04,02,02,28,6.60
2019,04,02,02,29,6.70
2019,04,02,02,30,6.70
2019,04,02,02,31,6.80
2019,04,02,02,32,6.80
2019,04,02,02,33,6.80
2019,04,02,02,34,6.70
2019,04,02,02,35,6.70
2019,04,02,02,36,6.70
2019,04,02,02,37,6.70
2019,04,02,02,38,6.70
2019,04,02,02,39,6.70
2019,04,02,02,40,6.70
2019,04,02,02,41,6.60
2019,04,02,02,42,6.60
2019,04,02,02,43,6.60
2019,04,02,02,44,6.60
2019,04,02,02,45,6.60
2019,04,02,02,46,6.50
2019,04,02,02,47,6.50
2019,04,02,02,48,6.40
2019,04,02,02,49,6.40
2019,04,02,02,50,6.30
2019,04,02,02,51,6.30
2019,04,02,02,52,6.30
2019,04,02,02,53,6.30
2019,04,02,02,54,6.50
2019,04,02,02,55,6.60
2019,04,02,02,56,6.60
2019,04,02,02,57,6.70
2019,04,02,02,58,6.70
2019,04,02,02,59,6.70
2019,04,02,03,00,6.70
2019,04,02,03,01,6.70
2019,04,02,03,02,6.70
2019,04,02,03,03,6.70
2019,04,02,03,04,6.60
2019,04,02,03,05,6.60
2019,04,02,03,06,6.50
2019,04,02,03,07,6.50
2019,04,02,03,08,6.50
2019,04,02,03,09,6.50
2019,04,02,03,10,6.40
2019,04,02,03,11,6.40
2019,04,02,03,12,6.40
2019,04,02,03,13,6.40
2019,04,02,03,14,6.50
2019,04,02,03,15,6.50
2019,04,02,03,16,6.50
2019,04,02,03,17,6.50
2019,04,02,03,18,6.50
2019,04,02,03,19,6.50
2019,04,02,03,20,6.60
2019,04,02,03,21,6.70
2019,04,02,03,22,6.70
2019,04,02,03,23,6.70
2019,04,02,03,24,6.70
2019,04,02,03,25,6.60
2019,04,02,03,26,6.60
2019,04,02,03,27,6.50
2019,04,02,03,28,6.50
2019,04,02,03,29,6.40
2019,04,02,03,30,6.40
2019,04,02,03,31,6.30
2019,04,02,03,32,6.30
2019,04,02,03,33,6.30
2019,04,02,03,34,6.30
2019,04,02,03,35,6.20
2019,04,02,03,36,6.20
2019,04,02,03,37,6.20
2019,04,02,03,38,6.10
2019,04,02,03,39,6.10
2019,04,02,03,40,6.10
2019,04,02,03,41,6.30
2019,04,02,03,42,6.30
2019,04,02,03,43,6.40
2019,04,02,03,44,6.50
2019,04,02,03,45,6.70
2019,04,02,03,46,6.70
2019,04,02,03,47,6.80
2019,04,02,03,48,6.80
2019,04,02,03,49,6.80
2019,04,02,03,50,6.80
2019,04,02,03,51,6.80
2019,04,02,03,52,6.80
2019,04,02,03,53,6.90
2019,04,02,03,54,7.00
2019,04,02,03,55,6.90
2019,04,02,03,56,7.00
2019,04,02,03,57,7.00
2019,04,02,03,58,7.00
2019,04,02,03,59,7.00
2019,04,02,04,00,7.00
2019,04,02,04,01,6.90
2019,04,02,04,02,6.80
2019,04,02,04,03,6.80
2019,04,02,04,04,6.70
2019,04,02,04,05,6.70
2019,04,02,04,06,6.60
2019,04,02,04,07,6.60
2019,04,02,04,08,6.60
2019,04,02,04,09,6.50
2019,04,02,04,10,6.50
2019,04,02,04,11,6.50
2019,04,02,04,12,6.40
2019,04,02,04,13,6.40
2019,04,02,04,14,6.40
2019,04,02,04,15,6.40
2019,04,02,04,16,6.50
2019,04,02,04,17,6.50
2019,04,02,04,18,6.50
2019,04,02,04,19,6.50
2019,04,02,04,20,6.60
2019,04,02,04,21,6.60
2019,04,02,04,22,6.60
2019,04,02,04,23,6.60
2019,04,02,04,24,6.60
2019,04,02,04,25,6.60
2019,04,02,04,26,6.60
2019,04,02,04,27,6.60
2019,04,02,04,28,6.60
2019,04,02,04,29,6.60
2019,04,02,04,30,6.50
2019,04,02,04,31,6.50
2019,04,02,04,32,6.40
2019,04,02,04,33,6.50
2019,04,02,04,34,6.60
2019,04,02,04,35,6.60
2019,04,02,04,36,6.60
2019,04,02,04,37,6.60
2019,04,02,04,38,6.60
2019,04,02,04,39,6.60
2019,04,02,04,40,6.50
2019,04,02,04,41,6.50
2019,04,02,04,42,6.50
2019,04,02,04,43,6.40
2019,04,02,04,44,6.40
2019,04,02,04,45,6.40
2019,04,02,04,46,6.50
2019,04,02,04,47,6.60
2019,04,02,04,48,6.60
2019,04,02,04,49,6.60
2019,04,02,04,50,6.70
2019,04,02,04,51,6.70
2019,04,02,04,52,6.60
2019,04,02,04,53,6.60
2019,04,02,04,54,6.60
2019,04,02,04,55,6.60
2019,04,02,04,56,6.60
2019,04,02,04,57,6.70
2019,04,02,04,58,6.80
2019,04,02,04,59,6.80
2019,04,02,05,00,6.80
2019,04,02,05,01,6.80
2019,04,02,05,02,6.90
2019,04,02,05,03,6.90
2019,04,02,05,04,6.90
2019,04,02,05,05,6.90
2019,04,02,05,06,6.90
2019,04,02,05,07,6.90
2019,04,02,05,08,6.90
2019,04,02,05,09,6.80
2019,04,02,05,10,6.80
2019,04,02,05,11,6.80
2019,04,02,05,12,6.70
2019,04,02,05,13,6.70
2019,04,02,05,14,6.70
2019,04,02,05,15,6.60
2019,04,02,05,16,6.60
2019,04,02,05,17,6.50
2019,04,02,05,18,6.50
2019,04,02,05,19,6.40
2019,04,02,05,20,6.40
2019,04,02,05,21,6.30
2019,04,02,05,22,6.30
2019,04,02,05,23,6.30
2019,04,02,05,24,6.30
2019,04,02,05,25,6.30
2019,04,02,05,26,6.20
2019,04,02,05,27,6.20
2019,04,02,05,28,6.20
2019,04,02,05,29,6.20
2019,04,02,05,30,6.20
2019,04,02,05,31,6.30
2019,04,02,05,32,6.30
2019,04,02,05,33,6.30
2019,04,02,05,34,6.30
2019,04,02,05,35,6.30
2019,04,02,05,36,6.30
2019,04,02,05,37,6.30
2019,04,02,05,38,6.20
2019,04,02,05,39,6.20
2019,04,02,05,40,6.20
2019,04,02,05,41,6.20
2019,04,02,05,42,6.20
2019,04,02,05,43,6.30
2019,04,02,05,44,6.40
2019,04,02,05,45,6.40
2019,04,02,05,46,6.50
2019,04,02,05,47,6.50
2019,04,02,05,48,6.50
2019,04,02,05,49,6.50
2019,04,02,05,50,6.50
2019,04,02,05,51,6.60
2019,04,02,05,52,6.60
2019,04,02,05,53,6.60
2019,04,02,05,54,6.50
2019,04,02,05,55,6.40
2019,04,02,05,56,6.40
2019,04,02,05,57,6.30
2019,04,02,05,58,6.30
2019,04,02,05,59,6.30
2019,04,02,06,00,6.20
2019,04,02,06,01,6.20
2019,04,02,06,02,6.20
2019,04,02,06,03,6.10
2019,04,02,06,04,6.10
2019,04,02,06,05,6.10
2019,04,02,06,06,6.20
2019,04,02,06,07,6.20
2019,04,02,06,08,6.20
2019,04,02,06,09,6.20
2019,04,02,06,10,6.20
2019,04,02,06,11,6.10
2019,04,02,06,12,6.10
2019,04,02,06,13,6.00
2019,04,02,06,14,6.00
2019,04,02,06,15,6.00
2019,04,02,06,16,6.10
2019,04,02,06,17,6.20
2019,04,02,06,18,6.30
2019,04,02,06,19,6.40
2019,04,02,06,20,6.40
2019,04,02,06,21,6.40
2019,04,02,06,22,6.40
2019,04,02,06,23,6.40
2019,04,02,06,24,6.40
2019,04,02,06,25,6.40
2019,04,02,06,26,6.40
2019,04,02,06,27,6.30
2019,04,02,06,28,6.30
2019,04,02,06,29,6.30
2019,04,02,06,30,6.20
2019,04,02,06,31,6.20
2019,04,02,06,32,6.20
2019,04,02,06,33,6.20
2019,04,02,06,34,6.10
2019,04,02,06,35,6.10
2019,04,02,06,36,6.00
2019,04,02,06,37,6.00
2019,04,02,06,38,5.90
2019,04,02,06,39,5.90
2019,04,02,06,40,5.90
2019,04,02,06,41,5.80
2019,04,02,06,42,5.80
2019,04,02,06,43,5.70
2019,04,02,06,44,5.70
2019,04,02,06,45,5.60
2019,04,02,06,46,5.60
2019,04,02,06,47,5.50
2019,04,02,06,48,5.50
2019,04,02,06,49,5.40
2019,04,02,06,50,5.30
2019,04,02,06,51,5.30
2019,04,02,06,52,5.30
2019,04,02,06,53,5.30
2019,04,02,06,54,5.30
2019,04,02,06,55,5.30
2019,04,02,06,56,5.50
2019,04,02,06,57,5.50
2019,04,02,06,58,5.60
2019,04,02,06,59,5.80
2019,04,02,07,00,5.90
2019,04,02,07,01,5.90
2019,04,02,07,02,5.80
2019,04,02,07,03,5.80
2019,04,02,07,04,5.70
2019,04,02,07,05,5.60
2019,04,02,07,06,5.60
2019,04,02,07,07,5.60
2019,04,02,07,08,5.50
2019,04,02,07,09,5.60
2019,04,02,07,10,5.70
2019,04,02,07,11,5.70
2019,04,02,07,12,5.60
2019,04,02,07,13,5.60
2019,04,02,07,14,5.70
2019,04,02,07,15,5.90
2019,04,02,07,16,6.10
2019,04,02,07,17,6.20
2019,04,02,07,18,6.40
2019,04,02,07,19,6.40
2019,04,02,07,20,6.40
2019,04,02,07,21,6.50
2019,04,02,07,22,6.50
2019,04,02,07,23,6.60
2019,04,02,07,24,6.60
2019,04,02,07,25,6.60
2019,04,02,07,26,6.60
2019,04,02,07,27,6.60
2019,04,02,07,28,6.70
2019,04,02,07,29,6.70
2019,04,02,07,30,6.70
2019,04,02,07,31,6.70
2019,04,02,07,32,6.70
2019,04,02,07,33,6.70
2019,04,02,07,34,6.70
2019,04,02,07,35,6.70
2019,04,02,07,36,6.60
2019,04,02,07,37,6.70
2019,04,02,07,38,6.70
2019,04,02,07,39,6.60
2019,04,02,07,40,6.60
2019,04,02,07,41,6.70
2019,04,02,07,42,6.80
2019,04,02,07,43,6.90
2019,04,02,07,44,6.90
2019,04,02,07,45,7.00
2019,04,02,07,46,7.00
2019,04,02,07,47,7.10
2019,04,02,07,48,7.20
2019,04,02,07,49,7.30
2019,04,02,07,50,7.40
2019,04,02,07,51,7.50
2019,04,02,07,52,7.60
2019,04,02,07,53,7.70
2019,04,02,07,54,7.80
2019,04,02,07,55,7.80
2019,04,02,07,56,7.90
2019,04,02,07,57,8.00
2019,04,02,07,58,8.10
2019,04,02,07,59,8.20
2019,04,02,08,00,8.30
2019,04,02,08,01,8.50
2019,04,02,08,02,8.60
2019,04,02,08,03,8.70
2019,04,02,08,04,8.70
2019,04,02,08,05,8.80
2019,04,02,08,06,8.80
2019,04,02,08,07,8.80
2019,04,02,08,08,8.90
2019,04,02,08,09,9.00
2019,04,02,08,10,9.10
2019,04,02,08,11,9.10
2019,04,02,08,12,9.20
2019,04,02,08,13,9.30
2019,04,02,08,14,9.40
2019,04,02,08,15,9.50
2019,04,02,08,16,9.50
2019,04,02,08,17,9.60
2019,04,02,08,18,9.70
2019,04,02,08,19,9.70
2019,04,02,08,20,9.80
2019,04,02,08,21,9.90
2019,04,02,08,22,9.90
2019,04,02,08,23,10.00
2019,04,02,08,24,10.10
2019,04,02,08,25,10.10
2019,04,02,08,26,10.20
2019,04,02,08,27,10.30
2019,04,02,08,28,10.30
2019,04,02,08,29,10.50
2019,04,02,08,30,10.60
2019,04,02,08,31,10.70
2019,04,02,08,32,10.80
2019,04,02,08,33,10.90
2019,04,02,08,34,11.00
2019,04,02,08,35,11.10
2019,04,02,08,36,11.20
2019,04,02,08,37,11.20
2019,04,02,08,38,11.30
2019,04,02,08,39,11.30
2019,04,02,08,40,11.30
2019,04,02,08,41,11.40
2019,04,02,08,42,11.40
2019,04,02,08,43,11.40
2019,04,02,08,44,11.50
2019,04,02,08,45,11.50
2019,04,02,08,46,11.60
2019,04,02,08,47,11.60
2019,04,02,08,48,11.60
2019,04,02,08,49,11.70
2019,04,02,08,50,11.70
2019,04,02,08,51,11.80
2019,04,02,08,52,11.80
2019,04,02,08,53,11.80
2019,04,02,08,54,11.80
2019,04,02,08,55,11.90
2019,04,02,08,56,12.00
2019,04,02,08,57,12.10
2019,04,02,08,58,12.10
2019,04,02,08,59,12.20
2019,04,02,09,00,12.30
2019,04,02,09,01,12.30
2019,04,02,09,02,12.40
2019,04,02,09,03,12.40
2019,04,02,09,04,12.50
2019,04,02,09,05,12.50
2019,04,02,09,06,12.60
2019,04,02,09,07,12.70
2019,04,02,09,08,12.70
2019,04,02,09,09,12.80
2019,04,02,09,10,12.80
2019,04,02,09,11,12.90
2019,04,02,09,12,12.90
2019,04,02,09,13,13.00
2019,04,02,09,14,13.10
2019,04,02,09,15,13.10
2019,04,02,09,16,13.20
2019,04,02,09,17,13.30
2019,04,02,09,18,13.30
2019,04,02,09,19,13.40
2019,04,02,09,20,13.40
2019,04,02,09,21,13.50
2019,04,02,09,22,13.50
2019,04,02,09,23,13.50
2019,04,02,09,24,13.60
2019,04,02,09,25,13.60
2019,04,02,09,26,13.60
2019,04,02,09,27,13.60
2019,04,02,09,28,13.70
2019,04,02,09,29,13.70
2019,04,02,09,30,13.70
2019,04,02,09,31,13.80
2019,04,02,09,32,13.80
2019,04,02,09,33,13.80
2019,04,02,09,34,13.80
2019,04,02,09,35,13.80
2019,04,02,09,36,13.80
2019,04,02,09,37,13.80
2019,04,02,09,38,13.80
2019,04,02,09,39,13.80
2019,04,02,09,40,13.80
2019,04,02,09,41,13.80
2019,04,02,09,42,13.80
2019,04,02,09,43,13.80
2019,04,02,09,44,13.80
2019,04,02,09,45,13.80
2019,04,02,09,46,13.80
2019,04,02,09,47,13.80
2019,04,02,09,48,13.90
2019,04,02,09,49,13.90
2019,04,02,09,50,13.90
2019,04,02,09,51,13.90
2019,04,02,09,52,13.90
2019,04,02,09,53,13.90
2019,04,02,09,54,13.90
2019,04,02,09,55,13.90
2019,04,02,09,56,13.90
2019,04,02,09,57,13.90
2019,04,02,09,58,13.90
2019,04,02,09,59,13.90
2019,04,02,10,00,13.90
2019,04,02,10,01,13.90
2019,04,02,10,02,13.90
2019,04,02,10,03,13.90
2019,04,02,10,04,14.00
2019,04,02,10,05,14.00
2019,04,02,10,06,14.00
2019,04,02,10,07,14.00
2019,04,02,10,08,14.10
2019,04,02,10,09,14.10
2019,04,02,10,10,14.10
2019,04,02,10,11,14.10
2019,04,02,10,12,14.10
2019,04,02,10,13,14.20
2019,04,02,10,14,14.20
2019,04,02,10,15,14.20
2019,04,02,10,16,14.30
2019,04,02,10,17,14.40
2019,04,02,10,18,14.40
2019,04,02,10,19,14.50
2019,04,02,10,20,14.50
2019,04,02,10,21,14.50
2019,04,02,10,22,14.60
2019,04,02,10,23,14.60
2019,04,02,10,24,14.70
2019,04,02,10,25,14.60
2019,04,02,10,26,14.60
2019,04,02,10,27,14.60
2019,04,02,10,28,14.60
2019,04,02,10,29,14.70
2019,04,02,10,30,14.70
2019,04,02,10,31,14.70
2019,04,02,10,32,14.80
2019,04,02,10,33,14.80
2019,04,02,10,34,14.80
2019,04,02,10,35,14.80
2019,04,02,10,36,14.90
2019,04,02,10,37,14.90
2019,04,02,10,38,14.80
2019,04,02,10,39,14.80
2019,04,02,10,40,14.80
2019,04,02,10,41,14.80
2019,04,02,10,42,14.90
2019,04,02,10,43,15.00
2019,04,02,10,44,15.00
2019,04,02,10,45,15.00
2019,04,02,10,46,15.00
2019,04,02,10,47,15.00
2019,04,02,10,48,15.00
2019,04,02,10,49,14.90
2019,04,02,10,50,14.90
2019,04,02,10,51,14.90
2019,04,02,10,52,14.80
2019,04,02,10,53,14.80
2019,04,02,10,54,14.80
2019,04,02,10,55,14.80
2019,04,02,10,56,14.70
2019,04,02,10,57,14.70
2019,04,02,10,58,14.70
2019,04,02,10,59,14.60
2019,04,02,11,00,14.60
2019,04,02,11,01,14.60
2019,04,02,11,02,14.60
2019,04,02,11,03,14.60
2019,04,02,11,04,14.60
2019,04,02,11,05,14.60
2019,04,02,11,06,14.60
2019,04,02,11,07,14.50
2019,04,02,11,08,14.40
2019,04,02,11,09,14.40
2019,04,02,11,10,14.30
2019,04,02,11,11,14.30
2019,04,02,11,12,14.30
2019,04,02,11,13,14.30
2019,04,02,11,14,14.40
2019,04,02,11,15,14.40
2019,04,02,11,16,14.50
2019,04,02,11,17,14.50
2019,04,02,11,18,14.60
2019,04,02,11,19,14.60
2019,04,02,11,20,14.50
2019,04,02,11,21,14.50
2019,04,02,11,22,14.60
2019,04,02,11,23,14.60
2019,04,02,11,24,14.60
2019,04,02,11,25,14.60
2019,04,02,11,26,14.60
2019,04,02,11,27,14.60
2019,04,02,11,28,14.60
2019,04,02,11,29,14.70
2019,04,02,11,30,14.70
2019,04,02,11,31,14.80
2019,04,02,11,32,14.80
2019,04,02,11,33,14.80
2019,04,02,11,34,14.90
2019,04,02,11,35,14.90
2019,04,02,11,36,14.80
2019,04,02,11,37,14.90
2019,04,02,11,38,14.90
2019,04,02,11,39,14.90
2019,04,02,11,40,15.00
2019,04,02,11,41,15.00
2019,04,02,11,42,15.00
2019,04,02,11,43,15.00
2019,04,02,11,44,15.00
2019,04,02,11,45,15.00
2019,04,02,11,46,14.90
2019,04,02,11,47,14.90
2019,04,02,11,48,15.00
2019,04,02,11,49,15.00
2019,04,02,11,50,15.00
2019,04,02,11,51,15.00
2019,04,02,11,52,15.00
2019,04,02,11,53,15.00
2019,04,02,11,54,15.00
2019,04,02,11,55,15.00
2019,04,02,11,56,15.00
2019,04,02,11,57,15.00
2019,04,02,11,58,15.00
2019,04,02,11,59,15.00
2019,04,02,12,00,15.00
2019,04,02,12,01,15.00
2019,04,02,12,02,15.00
2019,04,02,12,03,15.00
2019,04,02,12,04,15.00
2019,04,02,12,05,15.00
2019,04,02,12,06,15.00
2019,04,02,12,07,15.10
2019,04,02,12,08,15.20
2019,04,02,12,09,15.30
2019,04,02,12,10,15.30
2019,04,02,12,11,15.40
2019,04,02,12,12,15.50
2019,04,02,12,13,15.60
2019,04,02,12,14,15.70
2019,04,02,12,15,15.70
2019,04,02,12,16,15.80
2019,04,02,12,17,15.80
2019,04,02,12,18,15.80
2019,04,02,12,19,15.80
2019,04,02,12,20,15.80
2019,04,02,12,21,15.70
2019,04,02,12,22,15.60
2019,04,02,12,23,15.60
2019,04,02,12,24,15.50
2019,04,02,12,25,15.40
2019,04,02,12,26,15.40
2019,04,02,12,27,15.40
2019,04,02,12,28,15.40
2019,04,02,12,29,15.40
2019,04,02,12,30,15.30
2019,04,02,12,31,15.30
2019,04,02,12,32,15.30
2019,04,02,12,33,15.30
2019,04,02,12,34,15.30
2019,04,02,12,35,15.40
2019,04,02,12,36,15.40
2019,04,02,12,37,15.50
2019,04,02,12,38,15.50
2019,04,02,12,39,15.50
2019,04,02,12,40,15.50
2019,04,02,12,41,15.60
2019,04,02,12,42,15.70
2019,04,02,12,43,15.80
2019,04,02,12,44,15.80
2019,04,02,12,45,15.90
2019,04,02,12,46,16.00
2019,04,02,12,47,16.00
2019,04,02,12,48,16.10
2019,04,02,12,49,16.10
2019,04,02,12,50,16.10
2019,04,02,12,51,16.10
2019,04,02,12,52,16.10
2019,04,02,12,53,16.10
2019,04,02,12,54,16.20
2019,04,02,12,55,16.10
2019,04,02,12,56,16.00
2019,04,02,12,57,15.80
2019,04,02,12,58,15.70
2019,04,02,12,59,15.60
2019,04,02,13,00,15.30
2019,04,02,13,01,15.10
2019,04,02,13,02,15.00
2019,04,02,13,03,15.00
2019,04,02,13,04,15.00
2019,04,02,13,05,15.00
2019,04,02,13,06,15.00
2019,04,02,13,07,15.00
2019,04,02,13,08,15.00
2019,04,02,13,09,15.00
2019,04,02,13,10,15.00
2019,04,02,13,11,15.00
2019,04,02,13,12,15.00
2019,04,02,13,13,15.10
2019,04,02,13,14,15.20
2019,04,02,13,15,15.20
2019,04,02,13,16,15.20
2019,04,02,13,17,15.20
2019,04,02,13,18,15.30
2019,04,02,13,19,15.30
2019,04,02,13,20,15.30
2019,04,02,13,21,15.30
2019,04,02,13,22,15.20
2019,04,02,13,23,15.20
2019,04,02,13,24,15.20
2019,04,02,13,25,15.20
2019,04,02,13,26,15.30
2019,04,02,13,27,15.30
2019,04,02,13,28,15.40
2019,04,02,13,29,15.50
2019,04,02,13,30,15.60
2019,04,02,13,31,15.60
2019,04,02,13,32,15.70
2019,04,02,13,33,15.70
2019,04,02,13,34,15.80
2019,04,02,13,35,15.80
2019,04,02,13,36,15.80
2019,04,02,13,37,15.80
2019,04,02,13,38,15.80
2019,04,02,13,39,15.80
2019,04,02,13,40,15.80
2019,04,02,13,41,15.80
2019,04,02,13,42,15.80
2019,04,02,13,43,15.80
2019,04,02,13,44,15.80
2019,04,02,13,45,15.80
2019,04,02,13,46,15.80
2019,04,02,13,47,15.80
2019,04,02,13,48,15.80
2019,04,02,13,49,15.70
2019,04,02,13,50,15.70
2019,04,02,13,51,15.60
2019,04,02,13,52,15.60
2019,04,02,13,53,15.70
2019,04,02,13,54,15.70
2019,04,02,13,55,15.80
2019,04,02,13,56,15.80
2019,04,02,13,57,15.80
2019,04,02,13,58,15.70
2019,04,02,13,59,15.70
2019,04,02,14,00,15.70
2019,04,02,14,01,15.80
2019,04,02,14,02,15.80
2019,04,02,14,03,15.90
2019,04,02,14,04,15.90
2019,04,02,14,05,15.90
2019,04,02,14,06,15.80
2019,04,02,14,07,15.80
2019,04,02,14,08,15.70
2019,04,02,14,09,15.70
2019,04,02,14,10,15.60
2019,04,02,14,11,15.60
2019,04,02,14,12,15.60
2019,04,02,14,13,15.60
2019,04,02,14,14,15.60
2019,04,02,14,15,15.60
2019,04,02,14,16,15.60
2019,04,02,14,17,15.60
2019,04,02,14,18,15.60
2019,04,02,14,19,15.60
2019,04,02,14,20,15.60
2019,04,02,14,21,15.60
2019,04,02,14,22,15.70
2019,04,02,14,23,15.70
2019,04,02,14,24,15.80
2019,04,02,14,25,15.90
2019,04,02,14,26,16.10
2019,04,02,14,27,16.20
2019,04,02,14,28,16.30
2019,04,02,14,29,16.50
2019,04,02,14,30,16.70
2019,04,02,14,31,16.70
2019,04,02,14,32,16.80
2019,04,02,14,33,16.80
2019,04,02,14,34,16.80
2019,04,02,14,35,16.80
2019,04,02,14,36,16.70
2019,04,02,14,37,16.70
2019,04,02,14,38,16.70
2019,04,02,14,39,16.70
2019,04,02,14,40,16.70
2019,04,02,14,41,16.70
2019,04,02,14,42,16.70
2019,04,02,14,43,16.70
2019,04,02,14,44,16.70
2019,04,02,14,45,16.70
2019,04,02,14,46,16.80
2019,04,02,14,47,16.90
2019,04,02,14,48,16.90
2019,04,02,14,49,17.00
2019,04,02,14,50,17.00
2019,04,02,14,51,17.10
2019,04,02,14,52,17.20
2019,04,02,14,53,17.30
2019,04,02,14,54,17.40
2019,04,02,14,55,17.50
2019,04,02,14,56,17.60
2019,04,02,14,57,17.60
2019,04,02,14,58,17.60
2019,04,02,14,59,17.50
2019,04,02,15,00,17.50
2019,04,02,15,01,17.50
2019,04,02,15,02,17.40
2019,04,02,15,03,17.50
2019,04,02,15,04,17.50
2019,04,02,15,05,17.40
2019,04,02,15,06,17.40
2019,04,02,15,07,17.30
2019,04,02,15,08,17.20
2019,04,02,15,09,17.10
2019,04,02,15,10,16.90
2019,04,02,15,11,16.80
2019,04,02,15,12,16.60
2019,04,02,15,13,16.40
2019,04,02,15,14,16.30
2019,04,02,15,15,16.20
2019,04,02,15,16,16.10
2019,04,02,15,17,16.10
2019,04,02,15,18,16.00
2019,04,02,15,19,15.90
2019,04,02,15,20,15.90
2019,04,02,15,21,15.90
2019,04,02,15,22,15.90
2019,04,02,15,23,15.90
2019,04,02,15,24,15.90
2019,04,02,15,25,15.90
2019,04,02,15,26,15.80
2019,04,02,15,27,15.80
2019,04,02,15,28,15.90
2019,04,02,15,29,15.90
2019,04,02,15,30,16.00
2019,04,02,15,31,16.00
2019,04,02,15,32,16.00
2019,04,02,15,33,16.00
2019,04,02,15,34,16.00
2019,04,02,15,35,16.00
2019,04,02,15,36,15.90
2019,04,02,15,37,15.90
2019,04,02,15,38,15.80
2019,04,02,15,39,15.80
2019,04,02,15,40,15.80
2019,04,02,15,41,15.70
2019,04,02,15,42,15.70
2019,04,02,15,43,15.70
2019,04,02,15,44,15.70
2019,04,02,15,45,15.80
2019,04,02,15,46,15.80
2019,04,02,15,47,15.80
2019,04,02,15,48,15.80
2019,04,02,15,49,15.80
2019,04,02,15,50,15.80
2019,04,02,15,51,15.90
2019,04,02,15,52,15.90
2019,04,02,15,53,15.90
2019,04,02,15,54,15.90
2019,04,02,15,55,16.00
2019,04,02,15,56,16.00
2019,04,02,15,57,16.10
2019,04,02,15,58,16.10
2019,04,02,15,59,16.10
2019,04,02,16,00,16.10
2019,04,02,16,01,16.10
2019,04,02,16,02,16.10
2019,04,02,16,03,16.10
2019,04,02,16,04,16.00
2019,04,02,16,05,16.00
2019,04,02,16,06,15.90
2019,04,02,16,07,15.80
2019,04,02,16,08,15.80
2019,04,02,16,09,15.70
2019,04,02,16,10,15.70
2019,04,02,16,11,15.70
2019,04,02,16,12,15.70
2019,04,02,16,13,15.70
2019,04,02,16,14,15.70
2019,04,02,16,15,15.70
2019,04,02,16,16,15.70
2019,04,02,16,17,15.70
2019,04,02,16,18,15.80
2019,04,02,16,19,15.80
2019,04,02,16,20,15.80
2019,04,02,16,21,15.80
2019,04,02,16,22,15.80
2019,04,02,16,23,15.80
2019,04,02,16,24,15.80
2019,04,02,16,25,15.80
2019,04,02,16,26,15.70
2019,04,02,16,27,15.70
2019,04,02,16,28,15.70
2019,04,02,16,29,15.70
2019,04,02,16,30,15.70
2019,04,02,16,31,15.70
2019,04,02,16,32,15.60
2019,04,02,16,33,15.60
2019,04,02,16,34,15.60
2019,04,02,16,35,15.60
2019,04,02,16,36,15.60
2019,04,02,16,37,15.60
2019,04,02,16,38,15.60
2019,04,02,16,39,15.60
2019,04,02,16,40,15.60
2019,04,02,16,41,15.70
2019,04,02,16,42,15.70
2019,04,02,16,43,15.70
2019,04,02,16,44,15.70
2019,04,02,16,45,15.70
2019,04,02,16,46,15.70
2019,04,02,16,47,15.70
2019,04,02,16,48,15.80
2019,04,02,16,49,15.80
2019,04,02,16,50,15.80
2019,04,02,16,51,15.80
2019,04,02,16,52,15.80
2019,04,02,16,53,15.80
2019,04,02,16,54,15.80
2019,04,02,16,55,15.80
2019,04,02,16,56,15.80
2019,04,02,16,57,15.80
2019,04,02,16,58,15.80
2019,04,02,16,59,15.80
2019,04,02,17,00,15.80
2019,04,02,17,01,15.80
2019,04,02,17,02,15.80
2019,04,02,17,03,15.80
2019,04,02,17,04,15.80
2019,04,02,17,05,15.80
2019,04,02,17,06,15.80
2019,04,02,17,07,15.80
2019,04,02,17,08,15.80
2019,04,02,17,09,15.80
2019,04,02,17,10,15.80
2019,04,02,17,11,15.80
2019,04,02,17,12,15.80
2019,04,02,17,13,15.80
2019,04,02,17,14,15.80
2019,04,02,17,15,15.90
2019,04,02,17,16,15.90
2019,04,02,17,17,15.90
2019,04,02,17,18,15.90
2019,04,02,17,19,15.90
2019,04,02,17,20,15.90
2019,04,02,17,21,15.90
2019,04,02,17,22,15.90
2019,04,02,17,23,15.90
2019,04,02,17,24,15.90
2019,04,02,17,25,15.80
2019,04,02,17,26,15.80
2019,04,02,17,27,15.80
2019,04,02,17,28,15.80
2019,04,02,17,29,15.80
2019,04,02,17,30,15.80
2019,04,02,17,31,15.80
2019,04,02,17,32,15.80
2019,04,02,17,33,15.70
2019,04,02,17,34,15.70
2019,04,02,17,35,15.70
2019,04,02,17,36,15.70
2019,04,02,17,37,15.70
2019,04,02,17,38,15.70
2019,04,02,17,39,15.70
2019,04,02,17,40,15.70
2019,04,02,17,41,15.70